CW3847 La Orotava ES current weather conditions

sailwx.info

Wind from 189 at 0 knots gusting 1

Air temperature 13.9° C
Dewpoint 8.5° C

Last reported at 2019-Mar-19 01:05 UTC.
Time now 2019-Mar-19 01:31 UTC

Location: N 28°23' W 016°31'.
View on Google Maps.

See reports from other nearby stations

  
Tides and Currents Weather Stations Pressure Air Temp Water Temp Dewpoint Dewpoint Depression Visibility Wind Speed Wind Dir Waves Ship Positions
date/time (UTC)wind fromknots sea level pressurealtimeterstation pressurevisibilityair tempwater tempwave heightnotes
2019-Mar-19 01:10 158 0 gusting 2 13.9
2019-Mar-19 01:05 189 0 gusting 1 13.9
2019-Mar-19 01:00 184 0 gusting 2 13.9
2019-Mar-19 00:55 166 0 gusting 3 13.9
2019-Mar-19 00:50 164 1 gusting 3 13.9
2019-Mar-19 00:45 174 1 gusting 4 13.9
2019-Mar-19 00:40 176 0 gusting 4 13.9
2019-Mar-19 00:35 172 0 gusting 3 13.9
2019-Mar-19 00:30 165 0 gusting 4 13.9
2019-Mar-19 00:25 164 0 gusting 4 13.9
2019-Mar-19 00:20 153 0 gusting 2 13.9
2019-Mar-19 00:15 156 1 gusting 4 13.9
2019-Mar-19 00:10 162 1 gusting 6 13.9
2019-Mar-19 00:05 142 2 gusting 6 13.9
2019-Mar-19 00:00 131 3 gusting 7 13.9
2019-Mar-18 23:55 134 3 gusting 7 13.9
2019-Mar-18 23:50 141 3 gusting 7 13.9
2019-Mar-18 23:45 156 2 gusting 6 13.9
2019-Mar-18 23:40 144 4 gusting 7 13.9
2019-Mar-18 23:35 144 4 gusting 7 13.9
2019-Mar-18 23:30 158 2 gusting 6 13.9
2019-Mar-18 23:25 167 1 gusting 5 13.9
2019-Mar-18 23:20 167 1 gusting 3 13.9
2019-Mar-18 23:15 161 1 gusting 4 13.9
2019-Mar-18 23:10 166 2 gusting 6 13.9
2019-Mar-18 23:05 160 3 gusting 6 13.9
2019-Mar-18 23:00 160 3 gusting 6 13.3
2019-Mar-18 22:55 162 4 gusting 8 13.3
2019-Mar-18 22:50 160 4 gusting 8 13.3
2019-Mar-18 22:45 159 4 gusting 7 13.3
2019-Mar-18 22:40 163 3 gusting 7 13.3
2019-Mar-18 22:35 182 1 gusting 5 13.9
2019-Mar-18 22:30 194 0 gusting 3 13.9
2019-Mar-18 22:25 189 0 gusting 3 14.4
2019-Mar-18 22:20 209 0 gusting 3 14.4
2019-Mar-18 22:15 249 0 gusting 2 14.4
2019-Mar-18 22:10 289 0 gusting 2 14.4
2019-Mar-18 22:05 344 0 gusting 2 14.4
2019-Mar-18 22:00 332 0 gusting 3 14.4
2019-Mar-18 21:55 311 0 gusting 3 14.4
2019-Mar-18 21:50 224 0 gusting 4 14.4
2019-Mar-18 21:45 154 0 gusting 4 13.9
2019-Mar-18 21:40 164 1 gusting 4 13.9
2019-Mar-18 21:35 193 1 gusting 3 13.9
2019-Mar-18 21:30 185 1 gusting 4 13.9
2019-Mar-18 21:25 166 2 gusting 6 13.9
2019-Mar-18 21:20 171 2 gusting 6 13.9
2019-Mar-18 21:15 172 2 gusting 6 14.4
2019-Mar-18 21:10 166 3 gusting 6 14.4
2019-Mar-18 21:05 158 3 gusting 6 14.4
2019-Mar-18 21:00 154 2 gusting 6 14.4
2019-Mar-18 20:55 158 2 gusting 6 14.4
2019-Mar-18 20:50 161 1 gusting 5 15.0
2019-Mar-18 20:45 167 2 gusting 5 15.0
2019-Mar-18 20:40 176 1 gusting 5 15.0
2019-Mar-18 20:35 179 2 gusting 5 15.0
2019-Mar-18 20:30 163 1 gusting 4 15.0
2019-Mar-18 20:25 103 0 gusting 3 15.0
2019-Mar-18 20:20 090 0 gusting 2 15.0
2019-Mar-18 20:15 075 0 gusting 4 15.0
2019-Mar-18 20:10 073 1 gusting 5 15.0
2019-Mar-18 20:05 083 1 gusting 5 15.0
2019-Mar-18 20:00 079 2 gusting 8 15.0
2019-Mar-18 19:55 062 3 gusting 8 15.0
2019-Mar-18 19:50 055 3 gusting 8 15.0
2019-Mar-18 19:45 051 3 gusting 6 15.0
2019-Mar-18 19:40 047 3 gusting 6 15.0
2019-Mar-18 19:35 041 3 gusting 7 15.0
2019-Mar-18 19:30 043 4 gusting 9 15.0
2019-Mar-18 19:25 047 5 gusting 9 15.0
2019-Mar-18 19:20 037 4 gusting 9 15.0
2019-Mar-18 19:15 020 4 gusting 8 15.6
2019-Mar-18 19:10 028 5 gusting 8 15.6
2019-Mar-18 19:05 031 5 gusting 8 15.6
2019-Mar-18 19:00 019 4 gusting 9 15.6
2019-Mar-18 18:55 004 4 gusting 9 15.6
2019-Mar-18 18:50 349 5 gusting 8 15.6
2019-Mar-18 18:45 353 5 gusting 8 15.6
2019-Mar-18 18:40 345 5 gusting 8 15.6
2019-Mar-18 18:35 342 5 gusting 9 15.6
2019-Mar-18 18:30 353 5 gusting 9 16.1
2019-Mar-18 18:25 354 5 gusting 9 16.1
2019-Mar-18 18:20 349 5 gusting 9 16.1
2019-Mar-18 18:15 345 4 gusting 8 16.1
2019-Mar-18 18:10 353 4 gusting 10 16.1
2019-Mar-18 18:05 358 5 gusting 10 16.1
2019-Mar-18 18:00 357 4 gusting 9 16.1
2019-Mar-18 17:55 001 4 gusting 9 16.1
2019-Mar-18 17:50 357 5 gusting 8 16.1
2019-Mar-18 17:45 354 6 gusting 11 16.1
2019-Mar-18 17:40 348 6 gusting 11 16.1
2019-Mar-18 17:35 344 6 gusting 11 16.1
2019-Mar-18 17:30 349 6 gusting 11 16.1
2019-Mar-18 17:25 352 5 gusting 10 16.1
2019-Mar-18 17:20 001 5 gusting 10 16.7
2019-Mar-18 17:15 001 5 gusting 9 16.7
2019-Mar-18 17:10 355 6 gusting 13 16.7
2019-Mar-18 17:05 005 6 gusting 13 16.1
2019-Mar-18 17:00 005 6 gusting 12 16.7
2019-Mar-18 16:55 350 6 gusting 12 16.7
2019-Mar-18 16:50 356 6 gusting 11 16.7
2019-Mar-18 16:45 013 6 gusting 11 16.7
2019-Mar-18 16:40 011 6 gusting 10 17.2
2019-Mar-18 16:35 011 5 gusting 10 17.2
2019-Mar-18 16:30 035 5 gusting 11 17.2
2019-Mar-18 16:25 027 6 gusting 12 17.2
2019-Mar-18 16:20 014 7 gusting 12 16.7
2019-Mar-18 16:15 008 8 gusting 15 16.7
2019-Mar-18 16:10 002 7 gusting 15 17.2
2019-Mar-18 16:05 357 8 gusting 13 17.2
2019-Mar-18 16:00 356 8 gusting 13 17.2
2019-Mar-18 15:55 005 6 gusting 13 17.2
2019-Mar-18 15:50 019 5 gusting 11 17.2
2019-Mar-18 15:45 022 6 gusting 12 17.2
2019-Mar-18 15:40 024 6 gusting 12 17.2
2019-Mar-18 15:35 024 6 gusting 12 17.2
2019-Mar-18 15:30 006 6 gusting 13 17.2
2019-Mar-18 15:25 004 7 gusting 13 17.2
2019-Mar-18 15:20 012 6 gusting 12 17.2
2019-Mar-18 15:15 027 6 gusting 12 17.2
2019-Mar-18 15:10 032 6 gusting 12 17.2
2019-Mar-18 15:05 029 6 gusting 12 17.2
2019-Mar-18 15:00 037 6 gusting 12 17.2
2019-Mar-18 14:55 038 6 gusting 12 17.8
2019-Mar-18 14:50 029 6 gusting 11 17.8
2019-Mar-18 14:45 020 6 gusting 12 17.8
2019-Mar-18 14:40 016 6 gusting 12 17.2
2019-Mar-18 14:35 005 7 gusting 13 17.2
2019-Mar-18 14:30 357 7 gusting 13 17.2
2019-Mar-18 14:25 001 7 gusting 12 17.2
2019-Mar-18 14:20 005 7 gusting 12 17.2
2019-Mar-18 14:15 014 6 gusting 11 17.2
2019-Mar-18 14:10 019 6 gusting 11 17.2
2019-Mar-18 14:05 014 6 gusting 10 17.2
2019-Mar-18 14:00 008 6 gusting 10 17.2
2019-Mar-18 13:55 007 6 gusting 10 17.2
2019-Mar-18 13:50 011 6 gusting 10 17.2
2019-Mar-18 13:45 014 6 gusting 11 16.7
2019-Mar-18 13:40 012 6 gusting 11 16.7
2019-Mar-18 13:35 005 7 gusting 13 16.7
2019-Mar-18 13:30 357 8 gusting 13 16.7
2019-Mar-18 13:25 005 6 gusting 13 16.7
2019-Mar-18 13:20 031 5 gusting 10 16.7
2019-Mar-18 13:15 034 5 gusting 10 16.7
2019-Mar-18 13:10 017 6 gusting 13 16.7
2019-Mar-18 13:05 006 6 gusting 13 16.7
2019-Mar-18 13:00 006 7 gusting 13 16.7
2019-Mar-18 12:55 004 7 gusting 13 16.7
2019-Mar-18 12:50 012 6 gusting 13 16.7
2019-Mar-18 12:45 019 6 gusting 11 16.7
2019-Mar-18 12:40 016 6 gusting 11 16.7
2019-Mar-18 12:35 032 6 gusting 12 16.7
2019-Mar-18 12:30 035 6 gusting 12 16.7
2019-Mar-18 12:25 025 6 gusting 11 16.7
2019-Mar-18 12:20 024 6 gusting 11 16.1
2019-Mar-18 12:15 022 6 gusting 12 16.1
2019-Mar-18 12:10 026 6 gusting 12 16.1
2019-Mar-18 12:05 021 5 gusting 10 16.1
2019-Mar-18 12:00 014 6 gusting 11 16.1
2019-Mar-18 11:55 035 6 gusting 11 16.1
2019-Mar-18 11:50 031 6 gusting 12 16.1
2019-Mar-18 11:45 025 6 gusting 12 16.1
2019-Mar-18 11:40 021 6 gusting 12 16.1
2019-Mar-18 11:35 007 6 gusting 10 16.1
2019-Mar-18 11:30 010 5 gusting 10 16.1
2019-Mar-18 11:25 027 5 gusting 12 16.1
2019-Mar-18 11:20 041 5 gusting 12 16.1
2019-Mar-18 11:15 039 5 gusting 12 16.1
2019-Mar-18 11:10 041 6 gusting 12 16.1
2019-Mar-18 11:05 037 5 gusting 11 16.1
2019-Mar-18 11:00 036 6 gusting 12 16.1
2019-Mar-18 10:55 026 6 gusting 12 16.1
2019-Mar-18 10:50 009 6 gusting 10 16.1
2019-Mar-18 10:45 021 5 gusting 9 16.1
2019-Mar-18 10:40 023 5 gusting 9 16.7
2019-Mar-18 10:35 022 4 gusting 8 16.7
2019-Mar-18 10:30 037 2 gusting 7 16.7
2019-Mar-18 10:25 359 1 gusting 6 16.7
2019-Mar-18 10:20 340 2 gusting 6 16.7
2019-Mar-18 10:15 330 3 gusting 6 16.1
2019-Mar-18 10:10 334 3 gusting 6 16.1
2019-Mar-18 10:05 328 3 gusting 6 16.7
2019-Mar-18 10:00 308 2 gusting 6 16.7
2019-Mar-18 09:55 306 2 gusting 6 16.7
2019-Mar-18 09:50 312 2 gusting 6 16.1
2019-Mar-18 09:45 315 2 gusting 6 16.7
2019-Mar-18 09:40 331 1 gusting 4 16.7
2019-Mar-18 09:35 026 1 gusting 3 16.7
2019-Mar-18 09:30 028 0 gusting 3 16.7
2019-Mar-18 09:25 283 0 gusting 2 16.7
2019-Mar-18 09:20 240 0 gusting 3 16.1
2019-Mar-18 09:15 214 0 gusting 3 15.6
2019-Mar-18 09:10 201 1 gusting 3 15.6
2019-Mar-18 09:05 192 1 gusting 4 15.6
2019-Mar-18 09:00 184 0 gusting 4 15.0
2019-Mar-18 08:55 173 0 gusting 3 15.0
2019-Mar-18 08:50 169 0 gusting 1 15.0
2019-Mar-18 08:45 170 0 gusting 4 15.0
2019-Mar-18 08:40 162 2 gusting 6 14.4
2019-Mar-18 08:35 161 3 gusting 6 14.4
2019-Mar-18 08:30 163 3 gusting 6 14.4
2019-Mar-18 08:25 164 3 gusting 6 13.9
2019-Mar-18 08:20 166 3 gusting 6 13.9
2019-Mar-18 08:15 168 3 gusting 6 13.9
2019-Mar-18 08:10 171 2 gusting 6 13.3
2019-Mar-18 08:05 175 2 gusting 6 13.3
2019-Mar-18 08:00 177 2 gusting 5 13.3
2019-Mar-18 07:55 176 2 gusting 6 13.3
2019-Mar-18 07:50 176 2 gusting 6 13.3
2019-Mar-18 07:45 173 2 gusting 6 13.3
2019-Mar-18 07:40 173 2 gusting 6 13.3
2019-Mar-18 07:35 175 2 gusting 4 13.3
2019-Mar-18 07:30 173 2 gusting 5 13.3
2019-Mar-18 07:25 174 2 gusting 5 13.3
2019-Mar-18 07:20 177 1 gusting 5 13.3
2019-Mar-18 07:15 177 2 gusting 5 13.3
2019-Mar-18 07:10 173 2 gusting 5 13.3
2019-Mar-18 07:05 170 2 gusting 5 13.3
2019-Mar-18 07:00 170 2 gusting 4 13.3
2019-Mar-18 06:55 174 1 gusting 4 13.3
2019-Mar-18 06:50 177 1 gusting 4 13.3
2019-Mar-18 06:45 174 1 gusting 5 13.3
2019-Mar-18 06:40 174 1 gusting 5 13.3
2019-Mar-18 06:35 176 1 gusting 4 13.3
2019-Mar-18 06:30 178 1 gusting 3 13.3
2019-Mar-18 06:25 179 1 gusting 2 13.3
2019-Mar-18 06:20 173 0 gusting 3 13.3
2019-Mar-18 06:15 159 0 gusting 3 13.9
2019-Mar-18 06:10 149 0 gusting 2 13.9
2019-Mar-18 06:05 117 13.3
2019-Mar-18 06:00 116 0 gusting 2 13.3
2019-Mar-18 05:55 114 0 gusting 2 13.3
2019-Mar-18 05:50 117 0 gusting 2 13.3
2019-Mar-18 05:45 159 0 gusting 3 13.3
2019-Mar-18 05:40 161 1 gusting 4 13.3
2019-Mar-18 05:35 162 3 gusting 6 13.3
2019-Mar-18 05:30 165 3 gusting 6 13.3
2019-Mar-18 05:25 171 2 gusting 6 13.3
2019-Mar-18 05:20 167 4 gusting 7 13.3
2019-Mar-18 05:15 162 5 gusting 8 13.3
2019-Mar-18 05:10 160 5 gusting 8 13.3
2019-Mar-18 05:05 162 5 gusting 8 13.3
2019-Mar-18 05:00 166 4 gusting 8 13.3
2019-Mar-18 04:55 164 4 gusting 7 13.3
2019-Mar-18 04:50 165 4 gusting 8 13.3
2019-Mar-18 04:45 161 5 gusting 9 13.3
2019-Mar-18 04:40 158 4 gusting 9 13.3
2019-Mar-18 04:35 160 3 gusting 5 13.3
2019-Mar-18 04:30 160 2 gusting 5 13.3
2019-Mar-18 04:25 166 2 gusting 5 13.9
2019-Mar-18 04:20 168 1 gusting 4 13.9
2019-Mar-18 04:15 165 2 gusting 5 13.9
2019-Mar-18 04:10 166 2 gusting 5 13.9
2019-Mar-18 04:05 172 1 gusting 5 13.9
2019-Mar-18 04:00 175 1 gusting 5 13.9
2019-Mar-18 03:55 174 1 gusting 4 13.9
2019-Mar-18 03:50 171 2 gusting 4 13.3
2019-Mar-18 03:45 172 2 gusting 5 13.3
2019-Mar-18 03:40 172 1 gusting 5 13.3
2019-Mar-18 03:35 174 1 gusting 4 13.3
2019-Mar-18 03:30 177 2 gusting 5 13.3
2019-Mar-18 03:25 176 2 gusting 5 13.3
2019-Mar-18 03:20 175 2 gusting 5 13.3
2019-Mar-18 03:15 171 2 gusting 5 13.3
2019-Mar-18 03:10 170 2 gusting 5 13.3
2019-Mar-18 03:05 172 1 gusting 5 13.3
2019-Mar-18 03:00 173 2 gusting 5 13.3
2019-Mar-18 02:55 174 2 gusting 5 13.3
2019-Mar-18 02:50 171 2 gusting 5 13.3
2019-Mar-18 02:45 171 1 gusting 4 13.3
2019-Mar-18 02:40 173 2 gusting 4 13.3
2019-Mar-18 02:35 171 2 gusting 4 13.3
2019-Mar-18 02:30 172 2 gusting 5 13.3
2019-Mar-18 02:25 171 3 gusting 6 13.3
2019-Mar-18 02:20 170 3 gusting 6 13.3
2019-Mar-18 02:15 172 2 gusting 6 13.3
2019-Mar-18 02:10 173 2 gusting 5 13.3
2019-Mar-18 02:05 173 2 gusting 5 13.3
2019-Mar-18 02:00 174 2 gusting 5 13.3
2019-Mar-18 01:55 172 2 gusting 5 13.3
2019-Mar-18 01:50 173 2 gusting 5 13.3
2019-Mar-18 01:45 174 1 gusting 5 13.3
2019-Mar-18 01:40 175 1 gusting 4 13.3
2019-Mar-18 01:35 179 1 gusting 3 13.3
2019-Mar-18 01:30 186 1 gusting 3 13.3
2019-Mar-18 01:25 184 1 gusting 3 13.3
2019-Mar-18 01:20 177 1 gusting 3 13.3
2019-Mar-18 01:15 176 2 gusting 4 13.3
2019-Mar-18 01:10 176 2 gusting 4 13.3
2019-Mar-18 01:05 171 2 gusting 4 13.3
2019-Mar-18 01:00 161 2 gusting 5 13.3
2019-Mar-18 00:55 154 2 gusting 5 13.3
2019-Mar-18 00:50 151 1 gusting 5 13.3
2019-Mar-18 00:45 167 0 gusting 4 13.9
2019-Mar-18 00:40 175 1 gusting 4 13.9
2019-Mar-18 00:35 169 1 gusting 4 13.9
2019-Mar-18 00:30 166 2 gusting 5 13.9
2019-Mar-18 00:25 169 1 gusting 5 13.9
2019-Mar-18 00:20 176 0 gusting 3 13.9
2019-Mar-18 00:15 181 0 gusting 3 13.9
2019-Mar-18 00:10 185 0 gusting 2 13.9
2019-Mar-18 00:05 189 0 gusting 4 13.9
2019-Mar-18 00:00 212 1 gusting 4 13.9
2019-Mar-17 23:55 222 1 gusting 3 13.9
2019-Mar-17 23:50 206 1 gusting 3 13.9
2019-Mar-17 23:45 195 0 gusting 3 13.9
2019-Mar-17 23:40 179 13.9
2019-Mar-17 23:35 171 0 gusting 1 13.9
2019-Mar-17 23:30 171 0 gusting 3 13.9
2019-Mar-17 23:25 163 1 gusting 4 13.9
2019-Mar-17 23:20 167 2 gusting 5 13.9
2019-Mar-17 23:15 174 2 gusting 5 13.9
2019-Mar-17 23:10 184 1 gusting 5 13.9
2019-Mar-17 23:05 185 2 gusting 7 13.9
2019-Mar-17 23:00 174 3 gusting 9 13.9
2019-Mar-17 22:55 171 3 gusting 9 13.9
2019-Mar-17 22:50 170 3 gusting 7 13.9
2019-Mar-17 22:45 166 3 gusting 6 14.4
2019-Mar-17 22:40 158 3 gusting 6 14.4
2019-Mar-17 22:35 148 2 gusting 6 14.4
2019-Mar-17 22:30 146 2 gusting 6 14.4
2019-Mar-17 22:25 148 2 gusting 6 14.4
2019-Mar-17 22:20 151 1 gusting 4 14.4
2019-Mar-17 22:15 154 1 gusting 5 14.4
2019-Mar-17 22:10 161 2 gusting 5 14.4
2019-Mar-17 22:05 171 1 gusting 5 14.4
2019-Mar-17 22:00 188 0 gusting 4 14.4
2019-Mar-17 21:55 204 0 gusting 3 14.4
2019-Mar-17 21:50 208 0 gusting 4 14.4
2019-Mar-17 21:45 196 0 gusting 4 14.4
2019-Mar-17 21:40 195 1 gusting 6 14.4
2019-Mar-17 21:35 202 2 gusting 6 14.4
2019-Mar-17 21:30 214 2 gusting 6 14.4
2019-Mar-17 21:25 214 2 gusting 6 14.4
2019-Mar-17 21:20 206 2 gusting 6 14.4
2019-Mar-17 21:15 211 2 gusting 6 14.4
2019-Mar-17 21:10 218 2 gusting 4 14.4
2019-Mar-17 21:05 221 2 gusting 4 14.4
2019-Mar-17 21:00 218 2 gusting 5 14.4
2019-Mar-17 20:55 211 2 gusting 6 14.4
2019-Mar-17 20:50 192 1 gusting 6 14.4
2019-Mar-17 20:45 072 0 gusting 1 15.0
2019-Mar-17 20:40 059 0 gusting 2 15.0
2019-Mar-17 20:35 042 0 gusting 4 15.0
2019-Mar-17 20:30 039 1 gusting 5 15.0
2019-Mar-17 20:25 045 1 gusting 5 15.0
2019-Mar-17 20:20 051 1 gusting 4 15.0
2019-Mar-17 20:15 064 1 gusting 6 15.0
2019-Mar-17 20:10 053 2 gusting 6 15.0
2019-Mar-17 20:05 042 1 gusting 5 15.0
2019-Mar-17 20:00 056 1 gusting 4 15.0
2019-Mar-17 19:55 055 0 gusting 3 15.0
2019-Mar-17 19:50 044 0 gusting 3 15.0
2019-Mar-17 19:45 046 0 gusting 3 15.0
2019-Mar-17 19:40 047 0 gusting 3 15.0
2019-Mar-17 19:35 038 0 gusting 3 15.0
2019-Mar-17 19:30 043 1 gusting 5 15.0
2019-Mar-17 19:25 033 2 gusting 6 15.0
2019-Mar-17 19:20 027 2 gusting 6 15.0
2019-Mar-17 19:15 032 1 gusting 5 15.0
2019-Mar-17 19:10 007 2 gusting 6 15.0
2019-Mar-17 19:05 006 3 gusting 6 15.0
2019-Mar-17 19:00 005 2 gusting 6 15.0
2019-Mar-17 18:55 357 2 gusting 6 15.0
2019-Mar-17 18:50 007 2 gusting 6 15.0
2019-Mar-17 18:45 003 1 gusting 4 15.0
2019-Mar-17 18:40 346 1 gusting 4 15.6
2019-Mar-17 18:35 348 2 gusting 4 15.6
2019-Mar-17 18:30 353 2 gusting 7 15.6
2019-Mar-17 18:25 359 3 gusting 7 15.6
2019-Mar-17 18:20 356 3 gusting 6 15.6
2019-Mar-17 18:15 002 3 gusting 6 15.6
2019-Mar-17 18:10 012 2 gusting 6 15.6
2019-Mar-17 18:05 023 2 gusting 5 15.6
2019-Mar-17 18:00 014 2 gusting 6 15.6
2019-Mar-17 17:55 356 3 gusting 6 15.6
2019-Mar-17 17:50 358 3 gusting 7 15.6
2019-Mar-17 17:45 001 4 gusting 7 15.6
2019-Mar-17 17:40 356 4 gusting 8 15.6
2019-Mar-17 17:35 005 5 gusting 8 15.6
2019-Mar-17 17:30 020 4 gusting 7 15.6
2019-Mar-17 17:25 028 3 gusting 8 15.6
2019-Mar-17 17:20 026 3 gusting 8 15.6
2019-Mar-17 17:15 010 3 gusting 7 15.6
2019-Mar-17 17:10 352 4 gusting 8 15.6
2019-Mar-17 17:05 354 4 gusting 8 15.6
2019-Mar-17 17:00 003 4 gusting 7 15.6
2019-Mar-17 16:55 356 4 gusting 7 15.6
2019-Mar-17 16:50 354 3 gusting 7 15.6
2019-Mar-17 16:45 357 3 gusting 7 15.6
2019-Mar-17 16:40 004 4 gusting 7 15.6
2019-Mar-17 16:35 007 4 gusting 9 15.6
2019-Mar-17 16:30 005 4 gusting 9 15.6
2019-Mar-17 16:25 010 4 gusting 8 15.6
2019-Mar-17 16:20 023 4 gusting 8 15.6
2019-Mar-17 16:15 040 4 gusting 7 15.6
2019-Mar-17 16:10 046 3 gusting 7 15.6
2019-Mar-17 16:05 045 3 gusting 8 15.6
2019-Mar-17 16:00 043 4 gusting 10 15.6
2019-Mar-17 15:55 033 4 gusting 10 15.6
2019-Mar-17 15:50 007 4 gusting 10 16.1
2019-Mar-17 15:45 358 4 gusting 10 16.1
2019-Mar-17 15:40 009 4 gusting 8 16.1
2019-Mar-17 15:35 019 3 gusting 8 16.1
2019-Mar-17 15:30 019 3 gusting 6 16.1
2019-Mar-17 15:25 018 3 gusting 7 16.1
2019-Mar-17 15:20 009 4 gusting 7 16.1
2019-Mar-17 15:15 357 4 gusting 8 16.1
2019-Mar-17 15:10 355 4 gusting 8 16.1
2019-Mar-17 15:05 353 4 gusting 8 16.1
2019-Mar-17 15:00 352 4 gusting 8 16.1
2019-Mar-17 14:55 005 4 gusting 8 16.1
2019-Mar-17 14:50 014 3 gusting 7 16.1
2019-Mar-17 14:45 020 3 gusting 7 16.1
2019-Mar-17 14:40 021 2 gusting 7 16.1
2019-Mar-17 14:35 028 2 gusting 7 16.1
2019-Mar-17 14:30 023 3 gusting 8 16.1
2019-Mar-17 14:25 006 4 gusting 8 16.1
2019-Mar-17 14:20 352 5 gusting 9 16.1
2019-Mar-17 14:15 354 5 gusting 9 16.1
2019-Mar-17 14:10 014 4 gusting 8 16.7
2019-Mar-17 14:05 024 3 gusting 7 16.7
2019-Mar-17 14:00 025 3 gusting 7 16.1
2019-Mar-17 13:55 016 3 gusting 9 16.1
2019-Mar-17 13:50 016 4 gusting 9 16.1
2019-Mar-17 13:45 021 3 gusting 7 16.1
2019-Mar-17 13:40 004 4 gusting 7 16.1
2019-Mar-17 13:35 359 3 gusting 7 16.1
2019-Mar-17 13:30 007 3 gusting 8 16.1
2019-Mar-17 13:25 009 3 gusting 8 15.6
2019-Mar-17 13:20 018 3 gusting 7 15.6
2019-Mar-17 13:15 034 3 gusting 7 15.6
2019-Mar-17 13:10 034 2 gusting 6 15.6
2019-Mar-17 13:05 027 3 gusting 8 15.6
2019-Mar-17 13:00 016 4 gusting 8 15.6
2019-Mar-17 12:55 007 5 gusting 8 15.6
2019-Mar-17 12:50 003 5 gusting 8 15.6
2019-Mar-17 12:45 013 5 gusting 9 15.6
2019-Mar-17 12:40 020 5 gusting 9 15.6
2019-Mar-17 12:35 013 5 gusting 9 15.6
2019-Mar-17 12:30 023 4 gusting 9 15.6
2019-Mar-17 12:25 021 4 gusting 8 15.6
2019-Mar-17 12:20 010 4 gusting 8 15.6
2019-Mar-17 12:15 013 5 gusting 9 15.6
2019-Mar-17 12:10 018 5 gusting 10 15.6
2019-Mar-17 12:05 029 4 gusting 10 16.1
2019-Mar-17 12:00 035 3 gusting 9 16.1
2019-Mar-17 11:55 048 3 gusting 7 16.1
2019-Mar-17 11:50 049 4 gusting 7 15.6
2019-Mar-17 11:45 045 4 gusting 9 16.1
2019-Mar-17 11:40 045 5 gusting 9 16.1
2019-Mar-17 11:35 046 4 gusting 9 16.1
2019-Mar-17 11:30 042 3 gusting 8 16.1
2019-Mar-17 11:25 026 3 gusting 9 15.6
2019-Mar-17 11:20 027 4 gusting 9 15.6
2019-Mar-17 11:15 027 4 gusting 9 15.6
2019-Mar-17 11:10 024 4 gusting 9 15.6
2019-Mar-17 11:05 028 4 gusting 9 15.6
2019-Mar-17 11:00 024 5 gusting 9 15.6
2019-Mar-17 10:55 023 5 gusting 9 16.1
2019-Mar-17 10:50 030 5 gusting 9 16.1
2019-Mar-17 10:45 021 4 gusting 8 16.1
2019-Mar-17 10:40 006 3 gusting 7 16.7
2019-Mar-17 10:35 009 3 gusting 6 16.7
2019-Mar-17 10:30 014 2 gusting 6 16.7
2019-Mar-17 10:25 012 2 gusting 6 16.7
2019-Mar-17 10:20 353 3 gusting 6 16.7
2019-Mar-17 10:15 353 2 gusting 6 16.7
2019-Mar-17 10:10 020 2 gusting 5 17.2
2019-Mar-17 10:05 025 1 gusting 5 17.2
2019-Mar-17 10:00 032 1 gusting 4 17.2
2019-Mar-17 09:55 010 1 gusting 5 16.7
2019-Mar-17 09:50 353 2 gusting 5 16.7
2019-Mar-17 09:45 355 1 gusting 3 16.7
2019-Mar-17 09:40 357 1 gusting 5 16.7
2019-Mar-17 09:35 007 2 gusting 5 16.7
2019-Mar-17 09:30 359 1 gusting 3 17.2
2019-Mar-17 09:25 332 1 gusting 3 16.7
2019-Mar-17 09:20 317 0 gusting 2 16.7
2019-Mar-17 09:15 281 0 gusting 2 17.2
2019-Mar-17 09:10 212 0 gusting 2 16.7
2019-Mar-17 09:05 211 0 gusting 2 16.7
2019-Mar-17 09:00 207 0 gusting 4 16.1
2019-Mar-17 08:55 201 1 gusting 4 15.6
2019-Mar-17 08:50 171 1 gusting 5 15.0
2019-Mar-17 08:45 162 2 gusting 5 15.0
2019-Mar-17 08:40 165 1 gusting 3 15.0
2019-Mar-17 08:35 166 0 gusting 3 14.4
2019-Mar-17 08:30 168 0 gusting 3 14.4
2019-Mar-17 08:25 167 0 gusting 3 13.9
2019-Mar-17 08:20 168 13.9
2019-Mar-17 08:15 13.3
2019-Mar-17 08:10 139 13.3
2019-Mar-17 08:05 140 0 gusting 2 13.3
2019-Mar-17 08:00 160 0 gusting 2 13.3
2019-Mar-17 07:55 177 0 gusting 3 13.3
2019-Mar-17 07:50 169 1 gusting 4 13.3
2019-Mar-17 07:45 177 2 gusting 4 12.8
2019-Mar-17 07:40 188 2 gusting 4 12.8
2019-Mar-17 07:35 182 1 gusting 4 12.8
2019-Mar-17 07:30 176 1 gusting 4 12.8
2019-Mar-17 07:25 175 1 gusting 4 12.8
2019-Mar-17 07:20 176 1 gusting 4 12.8
2019-Mar-17 07:15 184 1 gusting 4 12.8
2019-Mar-17 07:10 171 2 gusting 5 12.8
2019-Mar-17 07:05 167 2 gusting 5 12.8
2019-Mar-17 07:00 176 1 gusting 4 12.8
2019-Mar-17 06:55 177 2 gusting 5 12.8
2019-Mar-17 06:50 172 2 gusting 5 12.8
2019-Mar-17 06:45 166 1 gusting 5 12.8
2019-Mar-17 06:40 170 1 gusting 5 12.8
2019-Mar-17 06:35 169 1 gusting 5 12.8
2019-Mar-17 06:30 172 0 gusting 4 12.8
2019-Mar-17 06:25 178 0 gusting 3 12.8
2019-Mar-17 06:20 164 1 gusting 4 12.8
2019-Mar-17 06:15 167 2 gusting 4 12.8
2019-Mar-17 06:10 173 1 gusting 3 12.8
2019-Mar-17 06:05 167 2 gusting 4 12.8
2019-Mar-17 06:00 169 2 gusting 4 12.8
2019-Mar-17 05:55 181 1 gusting 3 12.8
2019-Mar-17 05:50 178 0 gusting 3 12.8
2019-Mar-17 05:45 174 0 gusting 3 12.8
2019-Mar-17 05:40 178 0 gusting 3 12.8
2019-Mar-17 05:35 183 0 gusting 3 12.8
2019-Mar-17 05:30 193 0 gusting 3 12.8
2019-Mar-17 05:25 192 1 gusting 3 12.8
2019-Mar-17 05:20 176 0 gusting 3 12.8
2019-Mar-17 05:15 169 0 gusting 3 12.8
2019-Mar-17 05:10 166 0 gusting 3 12.8
2019-Mar-17 05:05 169 0 gusting 4 12.8
2019-Mar-17 05:00 172 1 gusting 4 12.8
2019-Mar-17 04:55 173 1 gusting 4 12.8
2019-Mar-17 04:50 181 1 gusting 4 12.8
2019-Mar-17 04:45 210 1 gusting 3 12.8
2019-Mar-17 04:40 209 1 gusting 4 12.8
2019-Mar-17 04:35 185 1 gusting 4 12.8
2019-Mar-17 04:30 195 1 gusting 4 12.8
2019-Mar-17 04:25 195 1 gusting 4 12.8
2019-Mar-17 04:20 181 1 gusting 4 12.2
2019-Mar-17 04:15 177 1 gusting 7 12.8
2019-Mar-17 04:10 173 1 gusting 7 12.8
2019-Mar-17 04:05 171 1 gusting 4 12.8
2019-Mar-17 03:55 174 1 gusting 5 12.8
2019-Mar-17 03:50 175 2 gusting 5 12.8
2019-Mar-17 03:45 175 1 gusting 5 12.8
2019-Mar-17 03:40 181 0 gusting 3 12.8
2019-Mar-17 03:35 177 1 gusting 4 12.8
2019-Mar-17 03:30 174 1 gusting 4 12.8
2019-Mar-17 03:25 183 1 gusting 4 12.8
2019-Mar-17 03:20 187 1 gusting 4 12.8
2019-Mar-17 03:15 187 1 gusting 4 12.8
2019-Mar-17 03:10 199 0 gusting 3 13.3
2019-Mar-17 03:05 197 1 gusting 4 13.3
2019-Mar-17 03:00 185 1 gusting 5 13.3
2019-Mar-17 02:55 178 2 gusting 5 13.3
2019-Mar-17 02:50 177 1 gusting 4 13.3
2019-Mar-17 02:45 178 1 gusting 3 13.3
2019-Mar-17 02:40 175 1 gusting 3 13.3
2019-Mar-17 02:35 176 1 gusting 4 13.3
2019-Mar-17 02:30 178 1 gusting 4 13.3
2019-Mar-17 02:25 174 1 gusting 3 13.3
2019-Mar-17 02:20 172 1 gusting 3 13.3
2019-Mar-17 02:15 172 2 gusting 4 13.3
2019-Mar-17 02:10 183 2 gusting 4 13.3
2019-Mar-17 02:05 185 2 gusting 4 13.3
2019-Mar-17 02:00 172 1 gusting 4 13.3
2019-Mar-17 01:55 169 1 gusting 4 13.3
2019-Mar-17 01:50 176 1 gusting 4 13.3
2019-Mar-17 01:45 179 1 gusting 3 13.3
2019-Mar-17 01:40 177 1 gusting 4 13.3
2019-Mar-17 01:35 167 2 gusting 4 13.9
2019-Mar-17 01:25 163 1 gusting 5 13.9
2019-Mar-17 01:20 176 0 gusting 1 14.4
2019-Mar-17 01:15 177 0 gusting 3 14.4
2019-Mar-17 01:10 174 0 gusting 3 14.4
2019-Mar-17 01:05 171 0 gusting 3 14.4
2019-Mar-17 01:00 177 0 gusting 2 14.4